QPF
0.05 0.04 0.03 0.01 0.00 0.00 0.00 0.00 0.00 0.00 0.00 0.01 0.02 0.03 0.03 0.05 0.05 0.04 0.03 0.03 0.03 0.03 0.05 0.04 0.04 0.05 0.05 0.06 0.06 0.06 0.04 0.04 0.05 0.05 0.06 0.06 0.05 0.05 0.05 0.05 0.04 0.03 0.04
0.03 0.04 0.03 0.02 0.01 0.01 0.00 0.00 0.00 0.00 0.00 0.01 0.01 0.02 0.03 0.04 0.03 0.03 0.04 0.04 0.04 0.04 0.03 0.04 0.05 0.06 0.06 0.06 0.07 0.08 0.07 0.05 0.05 0.06 0.08 0.08 0.09 0.08 0.05 0.05 0.05 0.04 0.03
0.02 0.01 0.01 0.01 0.01 0.01 0.00 0.01 0.00 0.00 0.00 0.00 0.01 0.02 0.02 0.02 0.02 0.03 0.04 0.04 0.04 0.04 0.04 0.05 0.06 0.07 0.06 0.05 0.06 0.07 0.08 0.08 0.06 0.05 0.09 0.12 0.12 0.11 0.09 0.07 0.05 0.04 0.03
0.01 0.01 0.01 0.01 0.01 0.01 0.00 0.01 0.00 0.00 0.01 0.01 0.02 0.02 0.02 0.03 0.02 0.02 0.03 0.04 0.03 0.02 0.03 0.04 0.06 0.07 0.07 0.07 0.05 0.05 0.06 0.08 0.08 0.07 0.07 0.08 0.09 0.12 0.11 0.08 0.06 0.05 0.04
0.01 0.01 0.01 0.01 0.01 0.01 0.01 0.01 0.01 0.01 0.01 0.02 0.01 0.02 0.02 0.01 0.01 0.02 0.04 0.05 0.04 0.03 0.02 0.04 0.06 0.06 0.07 0.06 0.05 0.06 0.07 0.08 0.09 0.08 0.08 0.07 0.07 0.08 0.09 0.10 0.09 0.06 0.05
0.01 0.01 0.01 0.00 0.00 0.00 0.01 0.01 0.01 0.01 0.01 0.01 0.02 0.02 0.01 0.01 0.01 0.02 0.04 0.04 0.04 0.03 0.03 0.03 0.05 0.05 0.04 0.04 0.05 0.07 0.08 0.07 0.07 0.06 0.05 0.04 0.05 0.06 0.07 0.09 0.11 0.09 0.07
0.01 0.01 0.01 0.01 0.00 0.00 0.00 0.01 0.01 0.01 0.01 0.01 0.02 0.02 0.02 0.02 0.02 0.03 0.04 0.04 0.03 0.02 0.03 0.04 0.05 0.05 0.06 0.05 0.06 0.06 0.06 0.07 0.06 0.05 0.05 0.03 0.03 0.03 0.05 0.07 0.09 0.09 0.07
0.00 0.01 0.01 0.01 0.01 0.01 0.01 0.01 0.01 0.01 0.01 0.01 0.02 0.03 0.03 0.03 0.03 0.04 0.02 0.02 0.02 0.02 0.03 0.03 0.03 0.04 0.04 0.04 0.05 0.04 0.04 0.05 0.05 0.04 0.05 0.04 0.03 0.03 0.04 0.06 0.07 0.08 0.07
0.00 0.01 0.01 0.01 0.01 0.01 0.01 0.01 0.01 0.02 0.01 0.01 0.02 0.03 0.03 0.03 0.03 0.04 0.03 0.02 0.02 0.02 0.02 0.02 0.03 0.03 0.04 0.04 0.05 0.05 0.05 0.06 0.05 0.05 0.06 0.05 0.04 0.04 0.04 0.06 0.06 0.08 0.09
0.01 0.01 0.01 0.01 0.02 0.02 0.02 0.02 0.02 0.03 0.03 0.03 0.03 0.03 0.04 0.04 0.03 0.03 0.02 0.02 0.02 0.03 0.03 0.03 0.03 0.03 0.05 0.06 0.05 0.05 0.05 0.06 0.05 0.06 0.08 0.07 0.05 0.07 0.08 0.08 0.08 0.08 0.09
0.01 0.01 0.02 0.02 0.02 0.02 0.02 0.02 0.02 0.02 0.02 0.02 0.03 0.05 0.05 0.04 0.04 0.03 0.02 0.02 0.02 0.04 0.03 0.03 0.03 0.04 0.05 0.06 0.06 0.06 0.07 0.06 0.07 0.08 0.08 0.08 0.09 0.11 0.11 0.10 0.09 0.07 0.06
0.00 0.01 0.01 0.02 0.02 0.02 0.02 0.02 0.02 0.03 0.03 0.04 0.05 0.05 0.05 0.05 0.04 0.02 0.02 0.03 0.03 0.02 0.03 0.03 0.03 0.03 0.04 0.05 0.06 0.06 0.08 0.08 0.07 0.09 0.10 0.10 0.09 0.08 0.07 0.07 0.06 0.06 0.06
0.00 0.01 0.01 0.02 0.02 0.03 0.03 0.03 0.03 0.04 0.05 0.05 0.06 0.05 0.04 0.04 0.04 0.03 0.03 0.03 0.03 0.03 0.03 0.04 0.03 0.03 0.04 0.05 0.05 0.07 0.07 0.09 0.10 0.12 0.11 0.07 0.06 0.07 0.07 0.06 0.06 0.05 0.04
0.01 0.01 0.02 0.02 0.02 0.03 0.03 0.03 0.03 0.03 0.04 0.05 0.07 0.07 0.05 0.05 0.05 0.04 0.03 0.03 0.03 0.03 0.04 0.04 0.03 0.03 0.04 0.04 0.04 0.05 0.08 0.10 0.10 0.09 0.07 0.05 0.05 0.06 0.07 0.06 0.07 0.06 0.05
0.01 0.01 0.03 0.03 0.01 0.02 0.02 0.02 0.03 0.03 0.03 0.05 0.06 0.07 0.06 0.06 0.04 0.04 0.03 0.03 0.03 0.03 0.04 0.04 0.04 0.03 0.03 0.03 0.04 0.04 0.05 0.06 0.05 0.05 0.05 0.05 0.05 0.04 0.04 0.04 0.05 0.05 0.06
0.01 0.01 0.03 0.02 0.01 0.02 0.02 0.02 0.02 0.02 0.02 0.05 0.08 0.10 0.06 0.05 0.03 0.03 0.03 0.03 0.02 0.02 0.03 0.03 0.03 0.03 0.02 0.02 0.03 0.04 0.04 0.04 0.04 0.04 0.05 0.06 0.03 0.02 0.02 0.02 0.02 0.02 0.03
0.02 0.02 0.04 0.04 0.04 0.02 0.02 0.02 0.02 0.03 0.02 0.03 0.05 0.08 0.05 0.04 0.03 0.03 0.03 0.02 0.02 0.03 0.03 0.03 0.04 0.03 0.03 0.04 0.04 0.04 0.03 0.03 0.03 0.03 0.05 0.04 0.02 0.02 0.01 0.01 0.01 0.01 0.01
0.02 0.02 0.05 0.05 0.04 0.03 0.02 0.02 0.02 0.02 0.02 0.03 0.03 0.04 0.03 0.02 0.02 0.03 0.03 0.02 0.03 0.03 0.03 0.04 0.04 0.04 0.03 0.03 0.03 0.03 0.04 0.04 0.04 0.03 0.03 0.03 0.02 0.02 0.02 0.02 0.02 0.02 0.02
0.02 0.02 0.06 0.05 0.04 0.03 0.03 0.03 0.03 0.03 0.04 0.03 0.03 0.02 0.02 0.01 0.02 0.02 0.02 0.02 0.02 0.03 0.03 0.03 0.03 0.03 0.03 0.02 0.01 0.02 0.03 0.05 0.05 0.04 0.03 0.02 0.02 0.02 0.02 0.03 0.03 0.02 0.02
0.01 0.02 0.06 0.05 0.04 0.03 0.03 0.03 0.04 0.05 0.05 0.03 0.03 0.02 0.02 0.02 0.01 0.02 0.02 0.02 0.02 0.02 0.02 0.02 0.03 0.03 0.03 0.02 0.01 0.01 0.01 0.03 0.05 0.05 0.04 0.03 0.03 0.03 0.03 0.04 0.05 0.04 0.04
0.01 0.02 0.04 0.04 0.03 0.03 0.03 0.03 0.05 0.05 0.05 0.04 0.04 0.04 0.03 0.03 0.02 0.03 0.03 0.03 0.03 0.03 0.03 0.02 0.02 0.02 0.03 0.02 0.01 0.00 0.01 0.01 0.02 0.04 0.04 0.04 0.03 0.02 0.02 0.03 0.05 0.04 0.05
0.01 0.01 0.02 0.03 0.03 0.04 0.04 0.03 0.04 0.04 0.06 0.05 0.05 0.05 0.05 0.03 0.03 0.03 0.03 0.03 0.04 0.04 0.04 0.03 0.02 0.03 0.02 0.02 0.01 0.00 0.00 0.01 0.02 0.02 0.03 0.03 0.02 0.02 0.01 0.01 0.02 0.02 0.03
0.01 0.01 0.03 0.03 0.04 0.04 0.05 0.04 0.03 0.04 0.04 0.04 0.05 0.05 0.05 0.05 0.04 0.03 0.04 0.04 0.04 0.04 0.04 0.04 0.03 0.03 0.03 0.03 0.01 0.00 0.00 0.00 0.01 0.02 0.02 0.02 0.02 0.02 0.01 0.01 0.01 0.01 0.02
0.02 0.02 0.02 0.03 0.03 0.04 0.05 0.05 0.05 0.05 0.03 0.04 0.05 0.05 0.06 0.06 0.05 0.04 0.04 0.04 0.04 0.05 0.04 0.04 0.03 0.03 0.03 0.03 0.02 0.02 0.01 0.01 0.01 0.02 0.02 0.02 0.02 0.02 0.01 0.01 0.01 0.01 0.02
0.02 0.03 0.03 0.04 0.05 0.06 0.07 0.07 0.06 0.05 0.04 0.04 0.04 0.05 0.06 0.06 0.06 0.05 0.03 0.03 0.04 0.04 0.03 0.03 0.03 0.04 0.03 0.03 0.03 0.02 0.02 0.01 0.01 0.02 0.03 0.02 0.02 0.02 0.02 0.02 0.02 0.02 0.02
0.02 0.03 0.03 0.04 0.06 0.08 0.08 0.07 0.07 0.06 0.05 0.04 0.04 0.04 0.05 0.07 0.08 0.07 0.04 0.03 0.03 0.02 0.03 0.02 0.02 0.02 0.01 0.01 0.01 0.02 0.01 0.01 0.01 0.01 0.03 0.04 0.04 0.03 0.03 0.04 0.03 0.02 0.02
MSLP
1016.15 1016.08 1015.99 1015.89 1015.78 1015.64 1015.47 1015.25 1014.98 1014.66 1014.30 1013.89 1013.44 1012.98 1012.53 1012.11 1011.75 1011.46 1011.27 1011.18 1011.20 1011.33 1011.55 1011.86 1012.27 1012.74 1013.28 1013.87 1014.50 1015.14 1015.77 1016.36 1016.88 1017.31 1017.64 1017.86 1017.98 1018.02 1018.01 1017.98 1017.96 1017.99 1018.08
1016.37 1016.29 1016.20 1016.09 1015.96 1015.82 1015.66 1015.48 1015.27 1015.01 1014.72 1014.37 1013.96 1013.51 1013.03 1012.53 1012.04 1011.60 1011.24 1010.98 1010.84 1010.83 1010.95 1011.21 1011.58 1012.04 1012.58 1013.18 1013.82 1014.46 1015.10 1015.71 1016.26 1016.73 1017.11 1017.40 1017.59 1017.71 1017.75 1017.77 1017.78 1017.82 1017.91
1016.43 1016.35 1016.25 1016.14 1016.02 1015.90 1015.77 1015.63 1015.49 1015.32 1015.11 1014.84 1014.50 1014.08 1013.58 1013.03 1012.45 1011.88 1011.36 1010.94 1010.64 1010.49 1010.49 1010.64 1010.94 1011.34 1011.84 1012.40 1013.00 1013.62 1014.25 1014.86 1015.42 1015.94 1016.39 1016.77 1017.05 1017.26 1017.40 1017.49 1017.56 1017.63 1017.72
1016.39 1016.32 1016.23 1016.12 1016.01 1015.90 1015.80 1015.71 1015.63 1015.53 1015.40 1015.21 1014.94 1014.57 1014.09 1013.52 1012.88 1012.22 1011.58 1011.03 1010.59 1010.29 1010.16 1010.19 1010.38 1010.69 1011.09 1011.58 1012.12 1012.69 1013.28 1013.87 1014.46 1015.02 1015.53 1016.00 1016.39 1016.70 1016.94 1017.12 1017.25 1017.36 1017.47
1016.32 1016.26 1016.18 1016.09 1015.98 1015.88 1015.79 1015.72 1015.67 1015.63 1015.56 1015.43 1015.22 1014.90 1014.46 1013.90 1013.25 1012.54 1011.84 1011.18 1010.63 1010.21 1009.95 1009.86 1009.91 1010.10 1010.40 1010.79 1011.24 1011.74 1012.28 1012.86 1013.44 1014.03 1014.61 1015.15 1015.63 1016.05 1016.38 1016.64 1016.83 1016.98 1017.12
1016.27 1016.24 1016.18 1016.08 1015.98 1015.86 1015.76 1015.68 1015.63 1015.59 1015.54 1015.46 1015.30 1015.04 1014.65 1014.13 1013.50 1012.80 1012.07 1011.37 1010.74 1010.22 1009.84 1009.62 1009.55 1009.61 1009.78 1010.06 1010.41 1010.84 1011.33 1011.87 1012.45 1013.06 1013.68 1014.28 1014.83 1015.32 1015.73 1016.05 1016.29 1016.48 1016.64
1016.30 1016.28 1016.23 1016.14 1016.02 1015.87 1015.73 1015.60 1015.50 1015.44 1015.38 1015.30 1015.18 1014.96 1014.64 1014.19 1013.62 1012.96 1012.24 1011.52 1010.85 1010.26 1009.78 1009.44 1009.24 1009.18 1009.23 1009.39 1009.66 1010.01 1010.45 1010.96 1011.53 1012.15 1012.79 1013.42 1014.02 1014.55 1015.01 1015.38 1015.66 1015.88 1016.06
1016.40 1016.41 1016.37 1016.26 1016.11 1015.91 1015.70 1015.50 1015.32 1015.19 1015.09 1015.00 1014.89 1014.73 1014.47 1014.09 1013.60 1013.01 1012.33 1011.63 1010.93 1010.28 1009.72 1009.28 1008.96 1008.77 1008.71 1008.78 1008.96 1009.24 1009.63 1010.12 1010.67 1011.29 1011.94 1012.58 1013.20 1013.77 1014.25 1014.65 1014.96 1015.21 1015.42
1016.58 1016.60 1016.56 1016.44 1016.24 1015.98 1015.68 1015.39 1015.12 1014.91 1014.75 1014.63 1014.52 1014.39 1014.19 1013.89 1013.48 1012.95 1012.33 1011.65 1010.94 1010.24 1009.61 1009.07 1008.64 1008.34 1008.18 1008.16 1008.27 1008.50 1008.86 1009.31 1009.86 1010.47 1011.11 1011.76 1012.39 1012.96 1013.47 1013.89 1014.24 1014.52 1014.77
1016.80 1016.83 1016.78 1016.63 1016.39 1016.06 1015.68 1015.29 1014.93 1014.63 1014.41 1014.25 1014.13 1014.02 1013.86 1013.63 1013.28 1012.82 1012.24 1011.57 1010.84 1010.10 1009.39 1008.76 1008.24 1007.84 1007.60 1007.50 1007.55 1007.74 1008.07 1008.51 1009.04 1009.64 1010.28 1010.93 1011.56 1012.14 1012.66 1013.12 1013.50 1013.83 1014.13
1017.05 1017.07 1017.01 1016.83 1016.54 1016.15 1015.70 1015.23 1014.79 1014.41 1014.12 1013.92 1013.78 1013.67 1013.53 1013.33 1013.02 1012.59 1012.03 1011.35 1010.59 1009.80 1009.03 1008.32 1007.71 1007.23 1006.92 1006.76 1006.77 1006.94 1007.24 1007.67 1008.19 1008.78 1009.41 1010.06 1010.69 1011.28 1011.83 1012.33 1012.77 1013.16 1013.53
1017.29 1017.30 1017.22 1017.02 1016.69 1016.26 1015.75 1015.22 1014.71 1014.27 1013.93 1013.68 1013.50 1013.37 1013.22 1013.01 1012.70 1012.26 1011.68 1010.98 1010.18 1009.34 1008.50 1007.72 1007.05 1006.52 1006.15 1005.96 1005.94 1006.09 1006.38 1006.80 1007.31 1007.89 1008.50 1009.14 1009.77 1010.39 1010.97 1011.52 1012.02 1012.50 1012.95
1017.52 1017.52 1017.42 1017.19 1016.83 1016.37 1015.82 1015.25 1014.70 1014.22 1013.82 1013.52 1013.29 1013.10 1012.90 1012.65 1012.29 1011.81 1011.18 1010.43 1009.58 1008.69 1007.80 1006.98 1006.28 1005.72 1005.34 1005.13 1005.11 1005.25 1005.53 1005.93 1006.42 1006.98 1007.58 1008.20 1008.83 1009.46 1010.08 1010.69 1011.27 1011.83 1012.37
1017.75 1017.73 1017.60 1017.35 1016.98 1016.49 1015.93 1015.34 1014.76 1014.24 1013.78 1013.42 1013.11 1012.84 1012.55 1012.21 1011.76 1011.19 1010.50 1009.68 1008.79 1007.86 1006.96 1006.13 1005.43 1004.89 1004.52 1004.34 1004.33 1004.47 1004.75 1005.14 1005.60 1006.13 1006.69 1007.29 1007.91 1008.55 1009.20 1009.85 1010.50 1011.14 1011.77
1017.98 1017.94 1017.78 1017.51 1017.12 1016.63 1016.07 1015.46 1014.86 1014.30 1013.79 1013.34 1012.93 1012.54 1012.13 1011.66 1011.10 1010.42 1009.63 1008.75 1007.82 1006.89 1005.99 1005.20 1004.55 1004.06 1003.75 1003.62 1003.65 1003.82 1004.10 1004.47 1004.90 1005.39 1005.91 1006.48 1007.07 1007.70 1008.37 1009.05 1009.75 1010.46 1011.15
1018.22 1018.14 1017.96 1017.67 1017.27 1016.78 1016.21 1015.60 1014.98 1014.37 1013.80 1013.25 1012.73 1012.20 1011.63 1011.01 1010.30 1009.50 1008.62 1007.68 1006.73 1005.81 1004.96 1004.24 1003.68 1003.29 1003.07 1003.02 1003.11 1003.32 1003.61 1003.97 1004.37 1004.82 1005.29 1005.81 1006.37 1006.98 1007.63 1008.33 1009.06 1009.80 1010.54
1018.46 1018.34 1018.14 1017.82 1017.42 1016.92 1016.35 1015.73 1015.09 1014.44 1013.79 1013.15 1012.49 1011.81 1011.08 1010.29 1009.43 1008.50 1007.53 1006.55 1005.59 1004.70 1003.93 1003.30 1002.86 1002.59 1002.49 1002.54 1002.71 1002.96 1003.28 1003.64 1004.02 1004.42 1004.85 1005.32 1005.83 1006.41 1007.04 1007.73 1008.46 1009.21 1009.96
1018.67 1018.52 1018.28 1017.95 1017.53 1017.03 1016.47 1015.85 1015.19 1014.50 1013.78 1013.03 1012.25 1011.42 1010.54 1009.59 1008.58 1007.54 1006.48 1005.46 1004.50 1003.65 1002.95 1002.43 1002.10 1001.96 1001.98 1002.13 1002.38 1002.70 1003.06 1003.42 1003.79 1004.17 1004.56 1004.98 1005.46 1005.99 1006.59 1007.25 1007.97 1008.71 1009.45
1018.84 1018.66 1018.39 1018.04 1017.61 1017.12 1016.56 1015.94 1015.27 1014.55 1013.79 1012.96 1012.08 1011.13 1010.10 1009.02 1007.89 1006.75 1005.62 1004.54 1003.58 1002.76 1002.11 1001.67 1001.44 1001.39 1001.50 1001.74 1002.07 1002.44 1002.83 1003.22 1003.59 1003.96 1004.34 1004.74 1005.18 1005.68 1006.25 1006.88 1007.57 1008.28 1009.01
1018.96 1018.74 1018.45 1018.08 1017.66 1017.17 1016.63 1016.03 1015.37 1014.65 1013.86 1012.99 1012.04 1011.01 1009.89 1008.71 1007.49 1006.26 1005.06 1003.94 1002.95 1002.12 1001.49 1001.08 1000.88 1000.87 1001.03 1001.32 1001.68 1002.10 1002.52 1002.93 1003.32 1003.70 1004.08 1004.48 1004.91 1005.40 1005.94 1006.55 1007.21 1007.89 1008.59
1019.02 1018.78 1018.46 1018.09 1017.67 1017.21 1016.69 1016.13 1015.50 1014.81 1014.03 1013.17 1012.20 1011.14 1009.98 1008.75 1007.47 1006.17 1004.92 1003.74 1002.70 1001.83 1001.16 1000.71 1000.47 1000.44 1000.58 1000.85 1001.21 1001.62 1002.06 1002.49 1002.91 1003.32 1003.72 1004.14 1004.58 1005.06 1005.60 1006.19 1006.81 1007.47 1008.13
1019.04 1018.78 1018.46 1018.09 1017.69 1017.26 1016.79 1016.28 1015.71 1015.07 1014.35 1013.53 1012.60 1011.56 1010.41 1009.18 1007.88 1006.56 1005.26 1004.02 1002.91 1001.95 1001.18 1000.62 1000.28 1000.15 1000.19 1000.38 1000.68 1001.06 1001.48 1001.91 1002.35 1002.79 1003.23 1003.67 1004.14 1004.63 1005.17 1005.73 1006.33 1006.95 1007.58
1019.05 1018.78 1018.46 1018.11 1017.74 1017.35 1016.93 1016.49 1015.99 1015.43 1014.79 1014.06 1013.21 1012.24 1011.16 1009.97 1008.70 1007.39 1006.06 1004.78 1003.58 1002.51 1001.60 1000.89 1000.39 1000.09 999.98 1000.03 1000.22 1000.51 1000.88 1001.30 1001.74 1002.20 1002.67 1003.14 1003.63 1004.13 1004.66 1005.20 1005.77 1006.34 1006.93
1019.06 1018.80 1018.50 1018.18 1017.84 1017.50 1017.14 1016.76 1016.34 1015.87 1015.34 1014.71 1013.97 1013.12 1012.15 1011.05 1009.86 1008.58 1007.27 1005.96 1004.69 1003.51 1002.46 1001.57 1000.88 1000.38 1000.07 999.95 999.99 1000.17 1000.46 1000.83 1001.25 1001.71 1002.19 1002.67 1003.16 1003.66 1004.16 1004.66 1005.18 1005.70 1006.23
1019.10 1018.86 1018.59 1018.31 1018.01 1017.71 1017.39 1017.07 1016.73 1016.35 1015.91 1015.40 1014.79 1014.07 1013.24 1012.28 1011.20 1010.02 1008.76 1007.46 1006.16 1004.91 1003.74 1002.70 1001.82 1001.12 1000.62 1000.32 1000.20 1000.24 1000.43 1000.73 1001.10 1001.53 1001.99 1002.46 1002.92 1003.38 1003.83 1004.26 1004.70 1005.14 1005.58
1019.16 1018.97 1018.74 1018.49 1018.22 1017.95 1017.67 1017.39 1017.10 1016.78 1016.42 1016.02 1015.53 1014.96 1014.28 1013.48 1012.56 1011.52 1010.37 1009.15 1007.88 1006.62 1005.39 1004.25 1003.25 1002.40 1001.74 1001.28 1001.01 1000.92 1001.00 1001.22 1001.52 1001.90 1002.30 1002.72 1003.12 1003.50 1003.86 1004.19 1004.52 1004.84 1005.18
Thickness
5823 5822 5819 5815 5810 5805 5800 5796 5791 5788 5785 5780 5776 5772 5769 5768 5766 5764 5762 5759 5757 5755 5753 5751 5749 5748 5745 5743 5742 5740 5739 5739 5740 5736 5733 5735 5738 5738 5738 5737 5736 5735 5735
5818 5817 5815 5812 5807 5802 5798 5794 5790 5787 5783 5780 5776 5773 5770 5768 5766 5764 5761 5758 5756 5754 5752 5749 5747 5746 5743 5741 5739 5738 5736 5736 5737 5733 5728 5724 5726 5731 5736 5735 5734 5734 5733
5812 5812 5811 5810 5806 5801 5797 5794 5790 5786 5782 5780 5776 5772 5768 5766 5763 5760 5758 5757 5754 5752 5750 5748 5746 5744 5742 5739 5737 5736 5733 5731 5734 5734 5728 5721 5718 5723 5729 5731 5732 5731 5730
5814 5812 5811 5808 5805 5802 5799 5794 5789 5785 5781 5779 5774 5769 5763 5760 5759 5758 5756 5755 5753 5751 5749 5747 5745 5742 5740 5738 5736 5735 5734 5732 5729 5731 5732 5730 5727 5720 5718 5724 5728 5728 5727
5816 5812 5811 5808 5806 5804 5799 5793 5788 5783 5780 5777 5773 5767 5763 5761 5759 5757 5754 5752 5751 5749 5747 5745 5743 5740 5738 5736 5735 5733 5732 5731 5729 5727 5728 5727 5727 5725 5718 5715 5718 5722 5724
5815 5811 5811 5809 5804 5803 5798 5792 5785 5781 5778 5774 5770 5766 5761 5758 5755 5752 5750 5749 5748 5747 5745 5743 5741 5739 5737 5735 5733 5731 5730 5729 5728 5727 5726 5724 5722 5721 5719 5715 5714 5715 5718
5809 5806 5804 5802 5800 5798 5795 5790 5783 5778 5775 5771 5767 5764 5760 5757 5753 5751 5749 5747 5745 5743 5741 5741 5739 5737 5736 5734 5732 5729 5727 5727 5725 5724 5724 5724 5723 5723 5721 5716 5713 5713 5714
5807 5803 5799 5799 5797 5794 5791 5786 5780 5775 5772 5768 5765 5762 5759 5756 5753 5750 5748 5745 5743 5742 5740 5739 5737 5735 5734 5733 5731 5728 5726 5725 5724 5723 5722 5721 5722 5722 5721 5717 5713 5708 5707
5802 5800 5796 5795 5792 5789 5786 5782 5777 5772 5769 5765 5762 5759 5756 5753 5750 5749 5747 5744 5742 5740 5739 5737 5735 5733 5732 5730 5728 5726 5724 5723 5722 5720 5719 5718 5718 5719 5720 5719 5715 5708 5701
5796 5794 5792 5790 5788 5785 5782 5778 5774 5769 5766 5763 5760 5757 5754 5751 5749 5746 5743 5741 5739 5737 5735 5733 5732 5730 5728 5728 5726 5723 5722 5720 5719 5717 5716 5715 5715 5715 5715 5714 5714 5713 5706
5790 5788 5786 5785 5782 5780 5776 5772 5767 5764 5761 5759 5757 5753 5750 5748 5746 5743 5740 5739 5736 5734 5732 5730 5728 5727 5726 5725 5723 5721 5719 5717 5715 5714 5713 5711 5711 5710 5710 5711 5710 5709 5706
5786 5783 5779 5776 5775 5772 5769 5766 5763 5760 5758 5756 5752 5749 5747 5744 5741 5738 5737 5735 5733 5731 5729 5727 5725 5724 5722 5721 5719 5716 5716 5713 5711 5710 5708 5707 5708 5707 5706 5706 5705 5704 5703
5777 5775 5772 5769 5767 5765 5763 5760 5759 5756 5754 5752 5748 5744 5742 5739 5736 5734 5733 5731 5729 5727 5726 5724 5721 5719 5718 5716 5715 5713 5712 5711 5709 5707 5705 5704 5703 5702 5702 5701 5700 5700 5701
5769 5766 5763 5761 5760 5758 5756 5754 5753 5751 5749 5746 5742 5738 5736 5734 5732 5730 5729 5727 5725 5723 5721 5719 5717 5715 5714 5712 5711 5709 5708 5707 5706 5704 5703 5702 5700 5698 5698 5697 5696 5696 5694
5759 5757 5755 5753 5752 5751 5750 5749 5747 5746 5744 5740 5737 5734 5733 5730 5728 5726 5724 5723 5721 5719 5717 5715 5713 5712 5709 5707 5705 5705 5704 5702 5701 5701 5700 5699 5698 5697 5695 5694 5692 5691 5688
5751 5750 5748 5747 5745 5744 5744 5742 5741 5740 5738 5735 5732 5730 5729 5726 5724 5722 5720 5718 5716 5715 5713 5710 5708 5706 5704 5701 5700 5700 5700 5698 5697 5696 5696 5696 5694 5693 5692 5691 5689 5688 5685
5743 5742 5742 5741 5740 5739 5739 5737 5736 5735 5732 5730 5728 5725 5724 5722 5720 5718 5715 5713 5711 5709 5707 5705 5704 5701 5698 5697 5696 5696 5696 5694 5693 5692 5692 5692 5692 5690 5688 5687 5686 5684 5683
5735 5735 5734 5735 5735 5734 5733 5732 5731 5729 5726 5724 5722 5721 5719 5717 5715 5712 5710 5707 5705 5703 5702 5700 5699 5697 5694 5693 5692 5692 5692 5691 5690 5689 5689 5687 5686 5686 5684 5683 5682 5680 5678
5729 5728 5729 5728 5728 5728 5727 5726 5724 5722 5719 5717 5716 5716 5715 5712 5709 5706 5704 5702 5700 5698 5697 5696 5695 5692 5690 5688 5688 5687 5688 5687 5687 5687 5686 5684 5683 5681 5680 5679 5676 5674 5673
5723 5722 5723 5722 5720 5720 5721 5719 5716 5715 5713 5712 5712 5711 5710 5706 5704 5701 5699 5698 5696 5694 5693 5692 5690 5689 5687 5684 5683 5683 5684 5683 5683 5682 5682 5680 5678 5676 5675 5673 5671 5668 5667
5715 5716 5715 5713 5712 5714 5713 5710 5709 5708 5708 5708 5707 5705 5704 5701 5699 5697 5695 5694 5692 5690 5688 5687 5686 5686 5684 5681 5679 5678 5679 5678 5678 5678 5677 5676 5673 5671 5669 5667 5666 5663 5661
5707 5707 5705 5704 5706 5707 5706 5703 5701 5703 5703 5702 5700 5699 5697 5697 5695 5692 5690 5689 5687 5685 5684 5683 5682 5682 5680 5678 5675 5674 5672 5672 5672 5672 5671 5669 5667 5665 5664 5662 5660 5658 5656
5697 5698 5697 5696 5698 5699 5698 5696 5696 5697 5696 5695 5693 5692 5691 5690 5689 5686 5685 5684 5683 5681 5681 5680 5678 5678 5677 5675 5672 5669 5668 5666 5665 5665 5664 5662 5660 5659 5658 5656 5655 5652 5651
5689 5690 5689 5688 5688 5690 5690 5689 5690 5690 5689 5687 5686 5686 5685 5684 5683 5682 5681 5680 5679 5678 5677 5676 5676 5674 5672 5669 5666 5665 5663 5660 5659 5658 5657 5656 5655 5653 5652 5652 5650 5648 5646
5681 5681 5681 5680 5681 5682 5683 5683 5683 5683 5682 5681 5680 5680 5679 5679 5677 5676 5675 5675 5674 5673 5672 5672 5672 5669 5666 5662 5659 5658 5657 5655 5653 5651 5651 5650 5649 5648 5648 5648 5647 5644 5642
5673 5673 5673 5673 5674 5676 5676 5676 5677 5676 5675 5674 5674 5675 5675 5674 5673 5672 5670 5668 5668 5667 5667 5666 5664 5661 5658 5657 5654 5652 5650 5648 5646 5644 5645 5645 5645 5645 5644 5643 5641 5639 5636